LEKNES current weather conditions

sailwx.info

Wind from 120 at 13 knots

Air temperature -0.0° C
Visibility: greater than 5.4 NM
Dewpoint -8.0° C

Last reported at 2019-Dec-10 21:20 UTC.
Time now 2019-Dec-11 03:13 UTC

Location: N 68°09' E 013°37'.
View on Google Maps.

See reports from other nearby stations

  
Tides and Currents Weather Stations Pressure Air Temp Water Temp Dewpoint Dewpoint Depression Visibility Wind Speed Wind Dir Waves Ship Positions
date/time (UTC)wind fromknots sea level pressurealtimeterstation pressurevisibilityair tempwater tempwave heightnotes
2019-Dec-10 21:20 120 13 5.4-0.0
2019-Dec-10 20:50 120 13 5.4-0.0
2019-Dec-10 19:50 100 14 5.4-0.0
2019-Dec-10 19:20 100 14 5.4-0.0
2019-Dec-10 17:50 120 11 5.4-0.0
2019-Dec-10 17:20 130 12 5.4-3.0 Showers in the vicinity.
2019-Dec-10 16:50 130 12 5.4-3.0 Showers in the vicinity.
2019-Dec-10 15:20 230 5 1.1-3.0 Light snow showers.
2019-Dec-10 14:50 030 2 5.4-7.0
2019-Dec-10 14:20 030 2 5.4-7.0
2019-Dec-10 13:50 040 6 5.4-6.0
2019-Dec-10 12:20 090 6 5.4-4.0 Showers in the vicinity.
2019-Dec-10 11:50 5.4-3.0 Showers in the vicinity.
2019-Dec-10 11:20 200 2 5.4-3.0 Showers in the vicinity.
2019-Dec-10 10:50 130 4 5.4-3.0 Showers in the vicinity.
2019-Dec-10 09:50 5.4-3.0 Showers in the vicinity.
2019-Dec-10 08:50 160 2 5.4-2.0 Showers in the vicinity.
2019-Dec-10 06:50 180 6 5.4-2.0 Showers in the vicinity.
2019-Dec-10 05:50 090 4 5.4-3.0 Showers in the vicinity.
2019-Dec-10 05:20 090 4 5.4-3.0 Showers in the vicinity.
2019-Dec-10 04:20 270 4 5.4-2.0 Light snow showers.
2019-Dec-10 03:50 310 7 5.4-1.0 Showers in the vicinity.
2019-Dec-09 21:20 010 9 5.4 1.0
2019-Dec-09 20:50 010 15 5.4 1.0 Light snow.
2019-Dec-09 20:20 010 15 5.4 1.0 Light snow.
2019-Dec-09 19:50 010 15 5.4 1.0 Light snow.
2019-Dec-09 19:20 010 17 2.7 1.0 Light snow.
2019-Dec-09 18:50 010 9 1.3-1.0 Light snow.
2019-Dec-09 18:20 020 19 0.8-1.0 Snow.
2019-Dec-09 17:20 020 13 1.3-1.0 Light snow.
2019-Dec-09 16:50 020 22 5.4-0.0 Showers in the vicinity.
2019-Dec-09 16:20 020 22 gusting 33 5.4-0.0 Showers in the vicinity.
2019-Dec-09 15:50 360 22 gusting 33 3.2 1.0 Light snow.
2019-Dec-09 14:50 340 13 3.2-0.0 Light snow.
2019-Dec-09 14:20 320 20 gusting 29 2.7 1.0 Snow.
2019-Dec-09 13:50 290 6 1.1 1.0 Light snow.
2019-Dec-09 13:20 290 6 0.8-1.0 Snow.
2019-Dec-09 12:11 180 5 2.7-2.0 Light snow.
2019-Dec-09 11:50 230 6 0.5-2.0 Snow.
2019-Dec-09 10:50 270 6 1.9-2.0 Snow showers.
2019-Dec-09 09:50 310 5 5.4-2.0
2019-Dec-09 08:50 350 8 5.4-1.0 Light snow showers.
2019-Dec-09 08:20 350 8 5.4-1.0 Light snow showers.
2019-Dec-09 06:50 350 8 5.4-1.0 Light snow showers.
2019-Dec-09 05:20 010 17 1.6-2.0 Snow showers.
2019-Dec-09 04:50 010 17 4.3-2.0 Light snow showers.
2019-Dec-09 04:20 020 22 gusting 33 1.6-2.0 Snow showers.
2019-Dec-09 03:50 5.4-3.0